TimePST,TemperatureF,Dew PointF,Humidity,Sea Level PressureIn,VisibilityMPH,Wind Direction,Wind SpeedMPH,Gust SpeedMPH,PrecipitationIn,Events,Conditions,WindDirDegrees,DateUTC
12:15 AM,46.4,42.8,87,29.58,9.0,South,8.1,-,N/A,,Overcast,170,2012-11-19 08:15:00
12:35 AM,46.4,42.8,87,29.58,10.0,South,5.8,-,0.01,,Overcast,170,2012-11-19 08:35:00
12:55 AM,46.4,42.8,87,29.56,10.0,SSE,9.2,-,0.01,,Overcast,160,2012-11-19 08:55:00
1:15 AM,46.4,42.8,87,29.57,10.0,SSE,8.1,-,N/A,,Overcast,160,2012-11-19 09:15:00
1:35 AM,46.4,42.8,87,29.56,10.0,SSE,5.8,-,N/A,,Overcast,160,2012-11-19 09:35:00
1:55 AM,46.4,42.8,87,29.55,9.0,SSE,9.2,-,0.02,,Overcast,160,2012-11-19 09:55:00
2:15 AM,46.4,42.8,87,29.57,7.0,SSE,9.2,-,0.02,,Overcast,160,2012-11-19 10:15:00
2:35 AM,46.4,42.8,87,29.56,10.0,SSE,6.9,-,0.04,,Overcast,150,2012-11-19 10:35:00
2:55 AM,48.2,44.6,87,29.55,10.0,SSE,11.5,17.3,0.04,,Overcast,160,2012-11-19 10:55:00
3:15 AM,48.2,44.6,87,29.55,10.0,South,13.8,20.7,N/A,,Overcast,170,2012-11-19 11:15:00
3:35 AM,48.2,44.6,87,29.55,10.0,SSE,12.7,21.9,N/A,,Overcast,160,2012-11-19 11:35:00
3:55 AM,48.2,42.8,82,29.55,10.0,South,13.8,17.3,0.01,,Overcast,170,2012-11-19 11:55:00
4:15 AM,46.4,42.8,87,29.55,10.0,SSE,12.7,17.3,0.03,,Overcast,160,2012-11-19 12:15:00
4:35 AM,48.2,44.6,87,29.54,10.0,South,11.5,19.6,0.07,,Overcast,170,2012-11-19 12:35:00
4:55 AM,48.2,44.6,87,29.55,10.0,South,8.1,-,0.12,,Overcast,170,2012-11-19 12:55:00
5:35 AM,48.2,44.6,87,29.55,10.0,SSE,8.1,-,0.13,,Mostly Cloudy,150,2012-11-19 13:35:00
5:55 AM,48.2,44.6,87,29.53,6.0,SE,8.1,-,0.26,,Mostly Cloudy,130,2012-11-19 13:55:00
6:15 AM,46.4,44.6,93,29.53,4.0,ESE,3.5,-,0.16,,Mostly Cloudy,120,2012-11-19 14:15:00
6:35 AM,46.4,44.6,93,29.51,10.0,NE,5.8,-,0.31,,Overcast,50,2012-11-19 14:35:00
6:55 AM,46.4,42.8,87,29.51,5.0,NW,4.6,-,0.49,,Overcast,310,2012-11-19 14:55:00
7:15 AM,46.4,44.6,93,29.50,8.0,NW,3.5,-,0.18,,Overcast,320,2012-11-19 15:15:00
7:35 AM,46.4,42.8,87,29.50,8.0,NE,4.6,-,0.29,,Overcast,50,2012-11-19 15:35:00
7:55 AM,46.4,42.8,87,29.50,7.0,North,3.5,-,0.39,,Overcast,350,2012-11-19 15:55:00
8:15 AM,46.4,42.8,87,29.48,8.0,North,4.6,-,0.10,,Mostly Cloudy,10,2012-11-19 16:15:00
8:35 AM,46.4,42.8,87,29.47,9.0,NNE,4.6,-,0.18,,Partly Cloudy,20,2012-11-19 16:35:00
8:55 AM,46.4,42.8,87,29.46,5.0,NE,8.1,-,0.28,,Clear,50,2012-11-19 16:55:00
9:15 AM,46.4,42.8,87,29.46,8.0,NNE,6.9,-,0.10,,Mostly Cloudy,30,2012-11-19 17:15:00
9:35 AM,46.4,42.8,87,29.44,9.0,NE,5.8,-,0.20,,Overcast,40,2012-11-19 17:35:00
9:55 AM,46.4,42.8,87,29.41,8.0,NE,3.5,-,0.32,,Overcast,40,2012-11-19 17:55:00
10:15 AM,46.4,42.8,87,29.42,4.0,Calm,Calm,-,0.18,,Scattered Clouds,0,2012-11-19 18:15:00
10:35 AM,46.4,42.8,87,29.42,4.0,Calm,Calm,-,0.36,,Clear,0,2012-11-19 18:35:00
10:55 AM,46.4,42.8,87,29.40,3.0,SW,4.6,-,0.52,,Scattered Clouds,220,2012-11-19 18:55:00
11:15 AM,46.4,42.8,87,29.38,3.0,Calm,Calm,-,0.14,,Overcast,0,2012-11-19 19:15:00
11:35 AM,46.4,42.8,87,29.40,6.0,WNW,8.1,-,0.32,,Overcast,290,2012-11-19 19:35:00
11:55 AM,46.4,44.6,93,29.37,5.0,South,6.9,-,0.47,,Overcast,190,2012-11-19 19:55:00
12:15 PM,51.8,48.2,88,29.37,7.0,WSW,10.4,21.9,0.10,,Overcast,240,2012-11-19 20:15:00
12:35 PM,51.8,48.2,88,29.37,6.0,South,17.3,26.5,0.23,,Overcast,180,2012-11-19 20:35:00
12:55 PM,51.8,48.2,88,29.40,6.0,South,25.3,32.2,0.28,,Overcast,180,2012-11-19 20:55:00
1:15 PM,51.8,48.2,88,29.39,8.0,SSE,18.4,28.8,0.03,,Overcast,160,2012-11-19 21:15:00
1:35 PM,51.8,46.4,82,29.40,10.0,South,13.8,20.7,0.04,,Mostly Cloudy,170,2012-11-19 21:35:00
1:55 PM,51.8,46.4,82,29.43,10.0,South,15.0,25.3,0.04,,Overcast,180,2012-11-19 21:55:00
2:15 PM,51.8,46.4,82,29.44,10.0,South,13.8,20.7,N/A,,Overcast,180,2012-11-19 22:15:00
2:35 PM,51.8,46.4,82,29.44,10.0,South,10.4,18.4,N/A,,Overcast,180,2012-11-19 22:35:00
2:55 PM,51.8,46.4,82,29.43,8.0,South,11.5,18.4,N/A,,Overcast,180,2012-11-19 22:55:00
3:15 PM,51.8,46.4,82,29.44,10.0,South,11.5,16.1,N/A,,Overcast,170,2012-11-19 23:15:00
3:35 PM,51.8,46.4,82,29.44,9.0,South,15.0,18.4,N/A,,Overcast,180,2012-11-19 23:35:00
3:55 PM,51.8,46.4,82,29.45,9.0,South,13.8,20.7,0.04,,Overcast,170,2012-11-19 23:55:00
4:15 PM,51.8,46.4,82,29.45,8.0,South,13.8,20.7,0.13,,Overcast,170,2012-11-20 00:15:00
4:35 PM,51.8,46.4,82,29.46,10.0,South,13.8,21.9,0.14,,Overcast,180,2012-11-20 00:35:00
4:55 PM,51.8,46.4,82,29.47,9.0,South,12.7,25.3,0.24,,Overcast,190,2012-11-20 00:55:00
5:15 PM,51.8,46.4,82,29.48,9.0,South,15.0,31.1,0.07,,Overcast,190,2012-11-20 01:15:00
5:35 PM,51.8,46.4,82,29.51,10.0,SSW,17.3,26.5,0.07,,Overcast,200,2012-11-20 01:35:00
5:55 PM,51.8,46.4,82,29.51,10.0,SSW,18.4,25.3,0.07,,Overcast,200,2012-11-20 01:55:00
6:15 PM,50.0,44.6,82,29.53,10.0,South,17.3,25.3,N/A,,Scattered Clouds,190,2012-11-20 02:15:00
6:35 PM,50.0,44.6,82,29.55,10.0,SSW,17.3,25.3,N/A,,Partly Cloudy,200,2012-11-20 02:35:00
6:55 PM,48.2,44.6,87,29.57,10.0,South,17.3,21.9,N/A,,Partly Cloudy,190,2012-11-20 02:55:00
7:15 PM,48.2,44.6,87,29.56,10.0,South,13.8,21.9,N/A,,Partly Cloudy,190,2012-11-20 03:15:00
7:35 PM,48.2,42.8,82,29.59,10.0,SSW,15.0,20.7,N/A,,Clear,200,2012-11-20 03:35:00
7:55 PM,48.2,42.8,82,29.60,10.0,SSW,9.2,18.4,N/A,,Clear,200,2012-11-20 03:55:00
8:15 PM,48.2,42.8,82,29.61,10.0,South,10.4,-,N/A,,Scattered Clouds,190,2012-11-20 04:15:00
8:35 PM,48.2,42.8,82,29.62,10.0,South,9.2,-,N/A,,Mostly Cloudy,170,2012-11-20 04:35:00
8:55 PM,46.4,42.8,87,29.64,10.0,South,10.4,-,N/A,,Mostly Cloudy,170,2012-11-20 04:55:00
9:15 PM,48.2,42.8,82,29.65,10.0,South,11.5,-,N/A,,Mostly Cloudy,190,2012-11-20 05:15:00
9:35 PM,46.4,42.8,87,29.65,10.0,South,9.2,-,N/A,,Partly Cloudy,170,2012-11-20 05:35:00
9:55 PM,46.4,42.8,87,29.66,10.0,South,9.2,-,N/A,,Mostly Cloudy,170,2012-11-20 05:55:00
10:15 PM,46.4,42.8,87,29.67,10.0,South,9.2,-,N/A,,Mostly Cloudy,190,2012-11-20 06:15:00
10:35 PM,46.4,42.8,87,29.67,10.0,South,8.1,-,N/A,,Overcast,180,2012-11-20 06:35:00
10:55 PM,46.4,42.8,87,29.68,10.0,South,6.9,-,N/A,,Mostly Cloudy,190,2012-11-20 06:55:00
11:15 PM,46.4,42.8,87,29.70,10.0,South,6.9,-,0.01,,Mostly Cloudy,190,2012-11-20 07:15:00
11:35 PM,46.4,42.8,87,29.70,10.0,South,8.1,-,0.01,,Partly Cloudy,180,2012-11-20 07:35:00
11:55 PM,46.4,42.8,87,29.70,10.0,South,8.1,-,0.01,,Clear,170,2012-11-20 07:55:00